Weather History for Prerov, Czech Republic

Change the Weather History Date:

Thursday, March 21, 2013

  Actual Average Record
Temperature  
Mean Temperature 38 °F -  
Max Temperature 44 °F - - ()
Min Temperature 32 °F - - ()
Degree Days  
Heating Degree Days 27    
Moisture  
Dew Point 30 °F    
Average Humidity 80    
Maximum Humidity 93    
Minimum Humidity 65    
Precipitation  
Precipitation 0.00 in - - ()
Sea Level Pressure  
Sea Level Pressure 29.86 in    
Wind  
Wind Speed 8 mph ()    
Max Wind Speed 23 mph    
Max Gust Speed 37 mph    
Visibility 5.8 miles    
Events Rain , Snow    
T = Trace of Precipitation, MM = Missing Value Source: Averaged Metar Reports

Daily Weather History Graph

Daily Weather History Graph

Search for Another Location

Airport:

Trip Planner

Search our weather history database for the weather conditions in past years. The results will help you decide how hot, cold, wet, or windy it might be!

Date:

Astronomy

Mar. 21, 2013 Rise Set
Actual Time 5:51 AM CET 6:04 PM CET
Civil Twilight 5:19 AM CET 6:36 PM CET
Nautical Twilight 4:41 AM CET 7:14 PM CET
Astronomical Twilight 4:02 AM CET 7:53 PM CET
Moon 11:51 AM CET (3/21) 2:28 AM CET (3/21)
Length of Visible Light 13h 17m
Length of Day
12h 13m
Waxing Gibbous, 66% of the Moon is Illuminated
Mar 21
Waxing Gibbous
Mar 27
Full
Apr 3
Last Quarter
Apr 10
New
Apr 18
First Quarter

Hourly Weather History & Observations

Time (CET) Temp. Windchill Dew Point Humidity Pressure Visibility Wind Dir Wind Speed Gust Speed Precip Events Conditions
12:00 AM 32.0 °F 28.7 °F 30.2 °F 93% 29.77 in - WNW 3.5 mph - N/A   Clear
1:00 AM 32.0 °F 25.6 °F 30.2 °F 93% 29.77 in - NW 6.9 mph - N/A   Clear
2:00 AM 33.8 °F 28.6 °F 32.0 °F 93% 29.77 in - NW 5.8 mph - N/A   Clear
3:00 AM 33.8 °F 29.6 °F 32.0 °F 93% 29.77 in - WNW 4.6 mph - N/A   Clear
4:00 AM 33.8 °F 28.6 °F 32.0 °F 93% 29.77 in - West 5.8 mph - N/A   Clear
5:00 AM 33.8 °F - 32.0 °F 93% 29.80 in 6.2 mi West 2.3 mph - N/A   Mostly Cloudy
6:00 AM 35.6 °F - 32.0 °F 87% 29.80 in 3.7 mi SW 2.3 mph - N/A Rain Light Rain
7:00 AM 35.6 °F 32.8 °F 33.8 °F 93% 29.83 in 3.7 mi South 3.5 mph - N/A Rain Light Rain
8:00 AM 37.4 °F - 35.6 °F 93% 29.83 in 4.3 mi Variable 2.3 mph - N/A   Unknown
9:00 AM 39.2 °F 37.0 °F 37.4 °F 93% 29.83 in 5.0 mi SSW 3.5 mph - N/A   Unknown
10:00 AM 41.0 °F - 37.4 °F 87% 29.83 in 6.2 mi Variable 2.3 mph - N/A   Overcast
11:00 AM 44.6 °F 39.7 °F 35.6 °F 71% 29.83 in 6.2 mi NW 9.2 mph - N/A   Overcast
12:00 PM 44.6 °F 38.1 °F 35.6 °F 71% 29.83 in 6.2 mi NW 13.8 mph - N/A   Mostly Cloudy
1:00 PM 42.8 °F 35.1 °F 33.8 °F 70% 29.86 in 6.2 mi NW 16.1 mph - N/A   Overcast
1:19 PM 41.0 °F 33.1 °F 33.8 °F 76% 29.86 in 6.2 mi NNW 15.0 mph 27.6 mph N/A   Overcast
2:00 PM 39.2 °F 29.6 °F 35.6 °F 87% 29.86 in 6.2 mi NW 19.6 mph - N/A   Overcast
3:00 PM 39.2 °F 29.8 °F 32.0 °F 75% 29.89 in 6.2 mi NW 18.4 mph - N/A   Mostly Cloudy
4:00 PM 37.4 °F 27.8 °F 28.4 °F 70% 29.89 in 6.2 mi NNW 17.3 mph - N/A   Overcast
4:10 PM 35.6 °F 25.9 °F 26.6 °F 70% 29.89 in 6.2 mi NNW 16.1 mph 28.8 mph N/A   Overcast
4:58 PM 35.6 °F 24.0 °F 24.8 °F 65% 29.92 in 6.2 mi NNW 23.0 mph 36.8 mph N/A   Overcast
5:00 PM 35.6 °F 24.2 °F 24.8 °F 65% 29.92 in 6.2 mi NNW 21.9 mph - N/A   Overcast
6:00 PM 33.8 °F 23.2 °F 24.8 °F 70% 29.92 in 6.2 mi NNW 17.3 mph - N/A   Mostly Cloudy
6:01 PM 33.8 °F 23.2 °F 24.8 °F 70% 29.92 in 6.2 mi NNW 17.3 mph 28.8 mph N/A   Mostly Cloudy
7:00 PM 33.8 °F 24.3 °F 26.6 °F 75% 29.95 in 6.2 mi NW 13.8 mph - N/A   Mostly Cloudy
8:00 PM 32.0 °F 22.1 °F 24.8 °F 75% 29.95 in 6.2 mi NNW 13.8 mph - N/A Snow Light Snow
9:00 PM 32.0 °F 22.1 °F 24.8 °F 75% 29.95 in 6.2 mi NNW 13.8 mph - N/A   Overcast
10:00 PM 32.0 °F 22.5 °F 24.8 °F 75% 29.98 in 6.2 mi NNW 12.7 mph - N/A   Overcast
11:00 PM 32.0 °F 23.6 °F 24.8 °F 75% 29.98 in 6.2 mi NNW 10.4 mph - N/A   Overcast